Simultaneous Nadir Overpasses (SNOs) Predictions

Prediction of SNOs between NOAA-19 and METOP-C Satellite Orbit:

Table of predicted SNOs for the next 14.0 days since TLE Epoch: 6/14/2024
Index Date (NOAA-19) Time (NOAA-19) Lat,Lon (NOAA-19) SZA (NOAA-19 ) Date (METOP-C) Time (METOP-C) Lat,Lon (METOP-C) SZA (METOP-C ) Distance(km) Time Diff (sec)
1 06/25/2024 20:27:31 -79.25, 68.94 123.75 06/25/2024 20:28:33 -79.25, 68.89 123.75 1.17 62
2 06/25/2024 21:18:27 79.35,-122.97 56.39 06/25/2024 21:19:10 79.34,-123.05 56.39 1.98 43
3 06/25/2024 22:09:24 -79.41, 44.79 123.53 06/25/2024 22:09:50 -79.40, 44.77 123.53 0.34 26
4 06/25/2024 23:00:20 79.50,-147.10 56.61 06/25/2024 23:00:27 79.50,-147.15 56.61 1.11 7
5 06/25/2024 23:51:17 -79.55, 20.67 123.31 06/25/2024 23:51:07 -79.56, 20.69 123.31 0.51 10
6 06/26/2024 00:42:14 79.62,-171.48 56.79 06/26/2024 00:41:45 79.62,-171.49 56.78 0.27 29
7 06/26/2024 01:33:11 -79.67, -3.70 123.13 06/26/2024 01:32:25 -79.67, -3.64 123.13 1.31 46



Historial Predications of SNOs between NOAA-19 and METOP-C
